Temp
9 9 9 9 9 9 8 8 8 8 8 8 7 7 7 7 7 8 8 8 8 8 8 9 10 11 12 13 14 14 14 14 14 15 15 15 15 15 15 15 15 15 15 15 15 15 15 15 15 15 15 15 14 14 14 13 13 13 13 14 14 14 14 14 14 14 13 13 13 13 13 13 13 13 13 13 13 12 12 12 12 12 11 11 11 11
9 9 9 9 9 8 8 8 8 8 8 8 7 7 7 7 7 7 7 7 7 7 8 8 9 10 11 12 13 14 14 14 14 14 15 15 15 16 15 15 15 15 15 15 15 15 15 15 15 15 15 15 14 14 14 13 13 13 13 14 14 14 14 14 13 13 13 13 13 13 13 12 12 12 13 13 13 13 12 12 12 12 11 11 11 11
9 9 9 9 9 8 8 8 8 8 8 8 7 7 7 6 6 6 6 7 7 7 7 7 8 9 10 10 11 13 14 14 14 14 14 14 15 15 16 15 15 14 14 15 15 15 15 15 15 15 15 15 15 14 14 13 13 14 14 14 14 14 14 13 13 13 13 13 13 12 12 12 12 12 13 13 13 12 12 12 12 11 11 11 11 11
9 9 8 8 8 8 8 7 7 7 8 8 7 7 7 6 6 6 6 6 6 7 7 7 7 8 8 9 10 11 13 14 14 14 14 14 14 15 15 15 15 14 14 15 15 15 15 15 15 15 15 15 15 14 14 14 14 14 14 14 14 14 13 13 13 13 13 12 12 12 12 12 13 13 13 12 12 12 12 11 11 11 11 11 10 10
9 8 8 8 8 8 8 7 7 7 7 8 8 7 7 6 6 6 6 6 6 6 6 6 7 7 7 8 9 10 11 13 13 14 14 14 14 14 14 14 14 14 14 15 15 15 15 15 15 15 15 14 14 14 14 14 14 14 14 14 14 13 13 13 13 13 12 12 12 12 13 13 13 12 12 12 12 12 11 11 11 10 10 10 10 10
9 8 8 8 8 8 8 7 7 7 7 7 7 7 7 7 6 6 6 6 6 6 6 6 6 6 6 7 8 9 10 12 12 13 13 14 14 14 14 14 14 14 14 14 14 15 15 15 14 14 14 14 14 14 14 14 14 14 14 14 13 13 13 13 13 12 12 12 13 13 13 13 12 12 12 12 11 11 11 10 10 9 9 9 10 10
9 8 8 8 8 8 8 8 7 7 7 7 7 7 7 7 7 6 5 5 5 5 5 5 6 6 6 6 7 8 9 10 11 12 12 13 13 14 14 14 14 14 14 14 14 14 14 14 14 14 13 13 13 13 14 14 14 14 14 13 13 13 13 13 13 13 13 13 13 12 12 12 12 12 11 11 11 11 10 9 9 8 8 9 9 9
9 9 8 8 8 8 8 8 8 7 7 7 7 7 7 7 7 6 6 5 5 5 5 5 5 5 5 5 6 6 7 8 9 10 10 11 11 12 13 13 14 14 14 14 14 14 14 14 14 14 13 13 13 13 13 13 13 13 13 13 13 13 13 13 13 13 13 13 12 12 12 12 12 11 11 11 11 10 9 8 7 8 8 8 9 9
9 9 8 8 8 8 8 8 8 7 7 7 7 7 7 7 7 7 6 6 5 5 4 4 5 5 5 5 5 5 6 6 7 7 8 9 9 10 11 12 12 13 13 14 14 14 14 14 14 14 14 13 13 13 13 13 13 13 13 13 13 13 13 13 13 13 13 12 12 12 12 11 11 11 11 10 10 9 8 7 7 7 8 8 8 9
9 9 8 8 8 8 8 8 8 7 7 7 7 7 7 7 7 7 7 6 5 5 4 4 4 4 4 5 5 5 5 5 6 6 7 7 8 8 9 10 10 11 12 12 12 13 13 13 14 14 13 13 13 13 13 13 13 13 12 12 12 12 12 13 13 12 12 12 12 11 11 11 11 11 10 9 9 8 7 7 7 8 8 8 9 9
9 8 8 8 8 8 8 8 8 7 7 7 8 7 7 6 7 7 7 6 5 5 4 4 3 3 4 4 4 5 5 5 5 6 6 6 7 7 8 8 9 9 10 10 10 11 11 12 12 12 12 13 13 13 13 13 13 12 12 12 12 12 12 12 12 12 12 11 11 11 11 11 11 10 10 8 8 7 7 7 7 8 9 9 9 9
9 9 8 8 8 8 8 8 8 7 7 7 7 7 6 6 6 7 7 6 5 5 5 4 4 3 3 3 4 4 4 4 4 5 5 6 6 6 7 7 7 7 8 8 8 8 9 9 10 10 10 10 11 11 11 11 11 12 12 12 12 12 12 12 12 11 11 11 11 11 11 11 11 10 9 8 8 8 8 7 7 8 9 9 9 9
8 8 8 8 8 7 7 7 7 7 7 6 6 6 6 6 6 6 7 6 6 5 5 4 4 3 3 3 3 4 4 4 4 4 4 5 5 5 6 6 6 6 6 6 6 6 7 7 7 8 8 8 8 9 9 9 9 10 11 11 12 12 12 11 11 11 11 10 10 10 10 10 10 9 8 8 8 9 8 7 7 7 9 9 9 9
8 8 8 8 8 7 7 7 7 7 6 6 5 5 5 5 6 6 6 6 6 6 5 5 4 4 3 3 3 4 4 4 4 4 4 4 4 4 5 5 5 5 5 5 5 5 5 6 6 6 6 6 7 7 7 7 7 8 9 10 10 11 10 10 10 10 10 10 10 10 9 9 9 8 8 8 9 9 8 7 7 7 9 9 9 8
7 8 8 8 7 7 6 6 6 6 6 5 5 5 5 5 5 5 6 6 6 6 6 6 5 4 3 3 3 3 4 4 4 3 3 3 3 4 4 4 4 4 5 5 5 5 5 5 5 5 5 5 5 6 6 6 6 7 7 8 9 9 9 9 9 9 9 9 9 9 8 8 8 8 8 8 9 9 8 6 6 7 8 8 8 8
7 7 7 7 7 7 6 6 6 6 6 6 5 5 5 5 5 5 5 5 6 6 7 7 7 6 4 3 3 3 3 3 3 3 3 3 3 3 3 4 4 4 4 4 4 4 4 5 5 5 5 5 5 6 6 6 6 6 6 6 7 7 8 8 8 8 8 8 8 8 8 8 7 8 8 8 9 8 7 6 6 6 7 7 8 8
7 7 7 7 7 6 6 6 5 6 6 6 5 5 5 4 4 5 5 5 5 6 6 6 7 6 5 4 3 2 2 3 3 3 3 2 2 3 3 3 3 3 3 4 4 4 4 4 4 5 5 6 6 7 7 6 6 6 5 5 6 6 6 7 7 7 7 7 7 7 7 7 7 7 8 8 8 8 7 6 5 5 5 6 7 8
6 6 6 6 6 6 5 5 5 5 5 5 6 5 5 4 4 4 4 4 5 5 5 5 5 5 4 3 3 2 2 2 2 2 2 2 2 2 3 3 3 3 3 3 3 3 3 4 4 4 5 5 6 6 6 6 6 5 5 5 5 5 5 5 6 6 6 6 5 5 5 6 6 7 7 8 8 7 6 6 5 5 5 6 7 8
6 5 5 6 6 5 5 4 4 4 4 5 5 5 5 4 4 4 4 4 4 4 4 4 3 3 3 2 2 2 2 2 2 2 1 1 1 1 2 2 2 3 3 3 3 3 3 3 3 4 4 4 5 5 6 6 6 6 6 5 5 5 5 5 5 5 5 5 5 5 5 6 6 7 7 7 6 6 5 5 5 5 6 6 7 7
5 5 4 5 5 5 4 4 4 4 4 5 5 5 5 4 4 4 4 3 3 3 3 3 2 2 2 2 2 2 3 3 2 2 1 1 0 1 1 1 2 2 2 2 2 3 3 3 3 3 3 4 4 4 5 5 5 5 5 5 5 5 5 5 5 5 4 4 4 4 5 5 6 6 6 6 5 5 5 5 5 5 6 6 7 7
5 4 4 4 4 4 4 4 4 4 4 4 5 5 5 4 4 3 3 3 3 3 3 2 2 1 1 1 2 2 3 3 3 2 2 1 0 0 0 1 1 1 1 2 2 2 3 3 3 3 3 3 3 4 4 4 4 4 4 4 4 4 4 4 4 4 4 3 3 4 4 5 5 5 5 5 4 4 4 4 5 5 6 7 7 8
4 4 4 4 4 4 4 4 4 3 4 4 4 4 4 4 4 3 3 3 3 2 2 2 2 1 2 2 2 3 3 3 3 3 2 1 1 0 0 0 0 0 0 1 1 2 2 2 2 2 2 3 3 3 3 3 3 3 4 4 3 3 3 3 3 3 3 3 3 3 4 4 5 5 5 4 4 4 4 5 5 6 6 7 8 8
4 4 4 4 4 4 4 4 3 4 4 4 4 4 4 3 3 3 3 3 3 2 2 2 2 2 2 2 3 3 3 3 3 3 2 1 0 0 0 0 0 0 0 0 1 1 1 2 2 2 2 2 2 2 2 3 3 3 3 3 3 3 3 3 3 3 3 3 3 3 4 4 4 5 5 5 4 4 5 5 6 7 7 7 8 7
4 4 4 4 4 4 4 4 4 4 3 3 3 3 3 3 3 3 3 3 3 3 3 3 3 3 3 3 3 3 3 3 3 3 2 1 0 0 0 0 0 0 0 1 1 1 1 1 1 2 2 2 2 2 2 2 2 3 3 3 3 3 3 3 3 3 3 3 3 3 4 4 5 5 5 5 5 5 6 6 7 7 7 7 7 7
4 4 4 4 4 4 4 4 4 4 4 4 4 4 4 4 4 4 4 4 4 4 4 4 4 3 3 2 2 2 2 3 3 2 2 1 0 0 0 0 0 0 0 1 1 1 1 1 1 1 1 1 2 2 2 2 2 2 2 2 3 3 3 3 3 4 4 3 3 3 4 4 5 5 5 5 6 6 7 7 7 7 7 7 6 6
4 4 4 4 4 4 4 3 3 4 4 4 4 4 4 5 5 5 5 5 5 5 5 5 4 4 3 2 2 1 2 2 2 2 2 1 1 0 0 0 1 0 0 1 2 2 2 2 2 1 1 1 1 1 1 2 2 2 2 2 2 2 2 3 3 3 3 3 3 3 4 4 5 5 5 6 6 7 7 7 7 7 6 6 6 5
4 4 4 4 4 4 4 4 4 4 4 4 5 4 5 5 6 6 5 5 5 5 6 5 5 4 4 3 2 1 1 2 2 2 2 2 1 0 0 0 1 1 1 1 1 2 2 2 2 2 2 2 2 1 1 1 1 1 1 1 1 2 2 2 2 2 2 2 3 3 4 4 5 6 6 7 7 7 7 7 7 6 6 6 5 5
5 5 5 5 5 5 5 5 5 5 5 5 5 5 5 5 5 6 5 5 5 5 6 5 5 5 4 3 2 2 2 2 2 3 3 2 1 0 0 0 1 1 1 1 1 2 2 2 2 2 2 2 2 2 2 2 2 2 1 1 1 1 1 2 2 2 2 3 3 4 4 5 6 6 6 7 7 7 7 7 7 6 6 5 5 4
5 5 5 5 5 5 5 5 5 5 5 5 5 5 5 5 5 5 5 5 5 5 5 5 5 4 4 3 3 3 2 2 3 3 3 2 1 0 0 1 1 1 1 1 2 2 2 2 2 2 2 2 2 2 2 2 2 2 2 2 2 2 2 2 3 3 3 4 4 4 5 5 6 6 6 6 7 7 7 7 6 6 6 5 5 4
5 5 5 5 5 5 5 5 5 5 5 5 5 5 5 5 4 4 4 5 5 5 5 5 5 4 5 5 5 4 3 2 3 3 3 2 1 0 1 1 1 1 1 1 2 2 1 1 1 1 1 2 2 2 2 2 2 2 2 2 2 2 3 3 4 4 4 4 5 5 5 5 5 6 6 6 7 7 7 7 6 6 5 5 4 4
5 5 5 5 5 5 5 5 5 5 5 5 5 5 5 4 4 4 4 4 5 5 5 5 5 5 5 6 6 5 5 3 3 3 3 2 1 1 1 1 1 2 2 2 3 3 1 1 1 1 1 1 2 2 2 2 2 2 2 2 2 3 3 4 4 4 5 5 5 5 5 5 5 6 6 6 6 6 6 6 6 5 5 4 4 4
4 4 5 5 5 5 5 5 5 5 5 5 5 5 4 4 4 4 4 4 4 5 5 5 5 5 5 6 6 5 4 3 3 3 3 2 2 1 1 1 2 2 2 2 3 3 2 1 0 1 1 1 1 2 2 2 2 2 2 2 3 3 3 4 4 4 4 5 5 5 5 5 5 6 6 6 6 6 6 5 5 4 4 4 4 4
4 4 4 4 5 5 5 5 5 5 5 4 4 4 4 4 4 4 4 4 4 4 4 5 5 5 5 5 4 3 3 3 3 3 3 3 2 2 2 2 2 2 2 3 2 2 1 0 0 0 1 1 1 1 2 2 2 2 3 3 3 3 4 4 4 4 4 5 5 5 5 5 6 6 6 5 5 5 5 5 4 4 4 4 4 4
4 4 4 4 4 4 5 5 5 5 4 4 4 4 4 4 4 4 4 4 4 4 4 4 4 4 5 5 4 3 2 3 3 3 3 3 3 2 2 2 2 2 2 2 2 1 1 0 0 0 0 1 1 2 2 2 2 2 3 3 3 3 4 4 4 4 4 5 5 5 5 5 5 5 5 5 5 5 4 4 4 4 4 4 4 4
4 4 4 4 4 4 4 4 4 4 4 4 4 4 4 4 4 4 4 4 4 4 4 4 4 3 4 4 4 3 2 3 3 3 3 3 3 3 2 2 2 3 2 2 2 1 1 1 1 1 1 1 1 1 2 2 2 2 3 3 3 3 4 4 4 4 4 4 5 5 5 5 5 5 5 5 5 4 4 4 4 4 4 4 4 4
4 4 4 3 3 3 3 3 4 4 4 4 4 4 4 4 3 3 3 3 4 4 4 4 4 4 4 3 3 3 2 2 3 3 3 3 3 3 3 3 3 3 3 2 2 2 1 1 1 1 1 1 1 1 2 2 2 2 3 3 3 3 4 4 4 4 4 4 4 5 5 5 5 5 5 4 4 4 4 4 3 4 4 4 4 4
4 4 3 3 3 3 3 3 3 3 3 3 4 4 4 4 4 3 3 3 3 4 4 4 4 4 4 4 3 3 2 2 2 3 3 3 3 3 3 3 3 3 3 3 2 2 1 1 1 1 1 1 1 1 1 2 2 2 3 3 3 3 4 4 4 4 4 4 4 4 4 4 4 4 4 4 4 4 4 3 3 4 4 4 4 4
4 3 3 3 3 3 3 3 3 3 3 3 3 3 4 4 4 4 3 3 3 4 4 4 4 4 4 4 4 3 3 3 2 2 3 3 3 3 3 3 3 3 2 2 2 2 2 2 2 2 2 1 1 1 1 1 2 2 2 3 3 3 4 4 4 4 4 4 4 4 4 4 4 4 4 4 4 4 3 3 3 3 4 4 4 4
3 3 3 3 3 3 3 2 2 2 2 2 3 3 3 4 4 4 4 4 4 4 4 4 4 4 4 4 4 4 3 3 3 2 2 2 2 3 2 2 2 2 2 2 2 2 3 3 3 3 2 1 1 1 1 1 1 2 2 3 3 3 3 4 4 4 4 4 4 4 4 4 4 4 4 4 4 3 3 3 3 3 3 4 4 4
3 3 2 2 2 2 2 2 2 2 2 2 2 3 3 3 3 4 4 4 4 4 4 4 4 4 4 4 4 4 4 3 3 2 2 2 2 2 2 2 2 2 2 2 2 2 3 3 3 2 2 2 1 1 1 1 1 2 2 2 3 3 3 3 4 4 4 4 4 4 4 4 4 4 4 3 3 3 3 3 3 3 3 4 4 3
2 2 2 2 2 2 2 2 2 2 2 2 2 3 3 3 3 3 3 3 4 4 4 4 4 4 4 4 4 4 4 3 3 3 2 2 2 2 2 2 2 2 2 2 2 2 2 3 2 2 2 2 2 1 1 1 1 1 2 2 2 3 3 3 3 3 4 4 4 4 3 3 3 3 3 3 3 3 3 3 3 3 3 3 4 4
2 2 2 2 2 2 2 2 2 2 2 2 2 2 2 2 2 3 3 3 3 3 3 3 3 3 4 4 4 4 4 3 3 3 2 2 2 2 2 2 2 1 1 1 1 2 2 2 2 2 2 2 2 2 1 1 1 1 1 2 2 3 3 3 3 3 3 3 3 3 3 3 3 3 3 3 3 3 3 3 3 3 3 3 3 4
2 2 2 3 3 3 3 3 2 2 2 2 2 2 2 2 2 2 2 2 2 2 3 3 3 3 3 3 3 4 4 3 3 3 3 2 2 2 2 2 2 1 1 1 1 1 1 2 2 2 1 1 2 2 2 1 1 1 1 1 2 2 2 2 3 3 3 3 3 3 3 3 3 3 3 3 3 3 3 3 3 3 3 3 3 3
3 3 3 3 3 3 3 2 2 2 2 2 1 1 1 1 1 2 2 2 2 2 2 2 2 2 2 3 3 3 3 3 3 3 3 2 2 2 1 1 1 1 1 1 1 1 1 1 1 1 1 1 2 2 2 1 1 1 1 1 1 2 2 2 2 3 3 3 3 3 3 3 3 3 3 3 3 3 3 3 3 3 3 3 3 3
2 2 2 3 3 2 2 2 2 2 2 2 1 1 1 1 1 1 1 2 2 2 2 2 2 2 3 2 2 3 3 3 3 3 3 3 2 2 1 1 1 1 1 1 1 1 1 1 1 1 1 1 1 2 2 2 1 1 1 1 1 2 2 2 2 3 2 2 2 2 2 2 2 2 2 2 3 3 3 3 3 3 3 3 3 3
1 2 2 2 2 2 2 2 2 2 1 1 1 1 1 1 1 1 1 1 1 1 1 2 2 2 3 2 2 2 2 2 2 2 2 2 2 2 1 1 1 1 1 1 1 1 1 1 1 1 1 1 1 1 1 1 1 1 1 1 1 2 2 2 2 2 2 2 2 2 2 2 2 2 2 2 2 2 2 3 3 3 3 3 3 3
1 1 1 2 2 2 2 2 2 2 1 1 1 1 1 0 0 1 0 1 1 1 1 1 1 2 2 2 2 2 1 1 1 1 2 2 1 1 1 1 1 1 1 1 1 0 0 0 0 0 1 1 1 1 1 1 1 1 1 1 1 1 2 2 2 2 2 2 2 2 2 2 2 2 2 2 2 2 2 2 3 3 3 3 3 3
0 1 1 1 1 1 1 1 1 1 1 1 1 1 1 1 0 1 1 0 0 1 1 1 1 1 1 1 1 1 1 1 1 0 0 1 1 1 1 0 0 0 1 1 0 0 0 0 0 0 0 1 1 1 1 0 0 0 0 0 1 1 1 2 2 2 2 2 2 2 2 2 2 2 2 2 2 2 2 2 2 3 3 3 3 3
0 0 0 0 1 1 1 1 1 1 1 1 1 1 1 1 1 1 1 1 1 1 1 1 2 2 1 1 1 1 1 1 0 0 -0 -0 -0 -0 -0 -0 -0 0 0 0 0 0 0 -0 -0 -0 -0 -0 0 1 1 0 -0 -0 -0 0 0 1 1 2 2 1 1 1 2 2 2 2 2 2 2 2 2 2 2 2 2 2 2 3 3 3
-0 -0 0 0 0 0 1 1 1 1 1 1 1 1 1 1 1 1 1 1 1 0 1 1 1 1 2 1 1 1 1 1 1 0 -0 -0 -0 -0 -0 -0 -0 -0 -0 -0 -0 0 0 -0 -0 -0 -0 -0 -0 -0 -0 -0 -0 -0 -0 -0 0 1 1 1 1 1 1 1 2 2 2 2 2 2 2 2 2 2 2 2 2 2 2 2 2 2
-0 -0 -0 -0 -0 0 0 0 1 1 1 1 1 1 1 1 1 1 1 0 0 0 0 0 1 1 1 1 1 1 1 1 1 0 -0 -0 -1 -1 -1 -0 -0 -0 0 1 1 1 1 1 1 0 -0 -0 -0 -0 -1 -1 -1 -1 -0 -0 0 1 1 1 1 1 1 1 1 2 2 2 2 2 2 2 2 2 2 2 2 2 2 2 2 2
Height
703 701 699 697 695 693 691 688 686 684 682 680 678 676 673 671 669 667 665 662 661 659 657 656 654 652 650 649 648 648 648 649 649 649 650 650 651 652 654 656 658 660 661 662 664 666 668 671 674 677 679 682 684 686 689 692 695 699 703 707 710 712 714 716 719 721 723 726 728 731 734 736 738 740 742 744 747 748 750 751 753 754 755 756 757 758
703 702 699 698 696 694 692 690 688 687 685 683 681 679 677 674 672 669 667 665 664 662 660 658 657 655 653 652 652 652 652 652 652 653 653 654 654 655 657 659 661 662 663 664 667 670 672 674 675 677 680 682 685 687 690 693 697 700 704 707 710 712 714 717 719 721 723 726 729 732 734 736 738 741 743 745 747 749 750 752 753 754 756 756 757 758
705 702 701 699 697 696 694 692 690 688 687 686 684 682 679 677 674 672 671 669 667 666 664 662 660 658 657 656 656 655 655 655 656 657 657 657 657 657 658 660 663 666 667 668 670 673 675 676 677 679 681 683 686 688 691 694 697 701 704 707 710 712 714 717 719 721 724 727 729 732 734 737 739 741 743 745 747 749 751 752 753 755 756 757 757 758
707 705 703 701 699 698 697 695 693 691 689 687 686 684 682 679 677 675 674 672 671 669 667 665 662 661 660 659 659 659 658 658 658 659 660 660 660 659 660 662 665 668 670 672 673 675 677 678 679 681 683 685 687 689 692 695 698 701 704 707 710 713 715 717 719 722 724 727 730 732 734 737 739 742 744 746 748 750 751 752 754 755 756 757 757 758
709 707 705 703 701 700 699 697 695 693 691 689 687 686 684 682 680 678 676 675 673 672 670 668 666 664 664 663 663 662 662 661 661 661 661 662 663 664 665 666 668 670 672 673 675 676 678 679 681 682 684 686 687 690 692 695 698 702 705 708 711 713 715 717 720 722 725 727 730 732 735 737 740 742 744 746 748 750 752 753 754 755 756 757 757 758
711 710 708 706 704 702 701 698 696 694 692 691 689 688 687 685 683 681 679 677 676 674 673 672 670 668 667 667 667 666 664 664 663 663 663 664 665 667 668 670 671 672 674 675 676 677 679 681 682 684 686 687 688 690 692 695 699 703 706 709 712 714 716 718 720 723 725 728 731 733 736 738 740 742 744 747 748 750 752 753 754 755 756 757 757 758
712 711 709 708 706 704 703 701 698 696 695 693 692 690 689 687 686 684 683 681 679 677 676 675 673 672 671 671 670 669 667 667 666 666 666 666 667 668 670 672 673 675 676 677 678 679 680 682 684 687 688 690 690 691 692 696 701 705 707 710 712 714 716 718 721 723 726 729 732 734 736 738 740 742 745 747 748 750 752 753 754 755 756 757 758 758
714 712 711 709 707 706 704 702 701 699 697 696 694 692 691 690 689 687 686 684 682 680 678 677 676 675 675 675 674 673 672 671 670 670 670 670 670 670 671 673 676 677 679 679 680 681 682 684 686 689 692 693 693 694 696 699 703 706 708 710 712 714 716 719 721 724 727 730 733 735 737 739 741 743 745 747 748 750 751 753 755 756 757 758 758 758
716 714 713 711 710 708 706 705 703 702 700 699 697 696 694 693 692 690 688 687 685 684 682 681 680 680 680 679 679 677 677 676 676 675 675 675 674 674 674 675 677 680 682 683 684 684 685 686 688 690 693 695 697 697 699 702 704 707 708 710 712 714 716 719 722 725 728 731 733 735 737 739 741 743 745 747 748 750 752 754 756 757 758 758 758 758
717 716 715 713 712 711 710 708 706 704 703 702 701 699 698 696 695 693 692 691 690 688 687 686 685 685 684 683 683 682 681 681 680 680 680 680 679 678 678 678 679 681 683 685 687 688 689 690 691 692 694 697 699 700 701 702 705 707 709 711 712 715 717 720 723 726 729 732 734 736 737 739 742 743 745 746 748 749 751 753 756 757 757 758 758 758
719 718 717 716 714 713 712 711 709 707 706 704 702 701 700 699 698 697 696 695 694 693 692 691 690 689 688 687 687 686 685 684 683 683 683 683 683 682 682 682 682 683 684 685 687 689 691 693 695 696 697 699 700 701 702 703 704 707 709 711 713 716 719 722 724 727 730 732 734 736 738 740 742 744 745 746 747 748 750 752 755 756 757 757 758 758
720 720 719 718 717 715 714 713 712 709 707 706 704 703 702 702 702 701 700 700 699 698 697 696 694 693 693 692 692 691 689 688 687 687 686 686 686 686 686 686 687 687 687 688 690 691 693 695 697 699 701 702 703 704 705 705 706 707 708 711 714 717 720 722 725 727 730 732 734 737 738 740 742 744 745 746 747 748 750 752 754 756 757 758 758 758
722 722 721 720 719 718 717 715 713 711 710 709 708 708 708 707 706 705 704 703 703 702 701 700 698 697 696 695 695 695 694 693 692 691 689 690 690 691 691 691 692 692 692 693 695 697 698 699 700 702 703 705 706 707 708 709 710 709 710 711 714 718 721 723 726 728 730 732 735 737 738 740 742 743 745 746 747 747 749 752 754 756 757 758 758 759
724 723 722 722 721 720 719 718 717 715 714 713 713 713 712 711 709 708 707 706 706 705 704 703 702 701 700 699 698 698 698 697 696 694 694 695 696 697 697 697 697 697 697 698 701 703 704 704 705 707 708 708 709 709 710 712 712 713 712 713 716 719 722 724 727 729 731 733 735 737 738 740 742 743 744 745 746 748 749 752 754 756 757 758 758 759
727 725 725 724 724 723 722 721 720 719 718 717 716 715 714 712 711 710 709 709 708 707 706 706 705 704 704 703 702 702 702 702 700 699 699 700 701 702 702 702 702 702 703 704 706 708 709 709 710 712 713 713 713 712 712 713 715 716 716 717 719 721 724 726 728 730 732 734 736 737 739 740 742 743 744 745 746 748 749 752 754 756 757 758 758 759
728 728 727 727 727 726 725 724 723 722 721 720 718 717 716 715 714 713 712 712 711 709 708 707 707 707 708 708 707 706 706 706 705 704 704 705 706 706 706 706 706 707 708 709 712 713 714 714 715 717 717 718 717 715 715 716 718 719 720 722 723 725 727 728 730 732 733 735 737 738 740 741 742 744 745 746 747 748 749 752 754 756 757 758 758 758
730 730 729 729 729 728 728 727 726 724 723 722 721 719 719 718 717 716 715 714 713 712 711 710 710 711 712 712 711 710 710 710 710 709 708 710 711 711 710 710 711 711 712 714 716 717 718 719 720 721 722 722 721 720 720 721 722 723 725 726 727 729 730 731 732 734 735 737 738 740 741 742 743 745 746 747 748 749 750 752 753 755 756 757 758 758
732 732 732 731 731 731 730 729 727 726 725 724 723 722 721 720 720 719 718 717 716 716 715 715 715 716 717 718 717 716 714 714 714 713 712 714 715 715 715 714 714 715 716 718 720 722 722 723 724 725 726 726 726 726 726 726 727 728 729 730 731 732 733 734 735 736 737 739 740 742 742 743 744 745 747 747 748 750 751 752 753 755 756 757 758 758
734 734 733 733 733 733 732 731 730 728 727 727 726 725 724 723 722 721 721 720 720 719 719 719 720 720 721 722 722 720 718 718 717 716 716 718 720 720 719 718 718 718 720 722 724 725 726 727 728 729 730 730 730 730 730 731 731 732 733 734 734 735 736 736 737 738 739 741 742 743 744 744 745 746 747 748 749 750 751 752 754 755 756 757 757 758
736 736 736 735 735 734 733 733 732 731 730 729 728 727 727 726 725 724 723 723 723 722 722 722 723 724 724 724 724 723 722 721 720 720 720 722 723 723 722 722 722 722 723 725 727 728 729 730 731 732 732 733 733 733 733 733 734 735 735 736 737 738 738 739 740 741 742 743 744 745 745 745 746 747 747 748 749 750 752 753 754 755 756 757 757 758
737 737 737 737 736 736 735 735 734 733 732 731 730 729 728 728 727 727 727 726 726 725 725 725 726 727 727 726 726 725 724 723 723 723 724 725 727 727 727 726 726 726 727 728 730 731 732 733 734 735 736 736 736 736 736 736 737 737 737 738 739 740 741 741 742 743 744 745 746 746 746 746 747 747 748 749 750 751 752 753 754 755 756 757 757 757
739 739 739 738 737 737 737 737 736 734 733 732 731 731 731 730 730 729 729 729 728 728 728 728 729 729 728 728 727 727 726 725 726 726 726 728 730 732 731 730 729 729 730 732 733 733 734 735 737 738 739 739 738 738 738 738 739 739 740 740 741 742 742 743 744 745 746 746 747 747 747 747 747 748 749 749 750 751 752 753 754 756 757 757 757 757
740 740 740 739 739 738 738 737 737 736 735 734 733 733 732 732 732 732 731 731 731 731 731 731 731 731 730 730 729 729 728 727 727 727 728 731 734 736 735 734 733 732 734 736 736 736 736 737 738 740 741 741 741 741 741 741 741 742 742 742 743 744 744 745 745 746 747 747 747 748 748 748 748 749 750 750 751 752 753 754 755 756 757 757 757 757
741 741 741 740 740 739 739 738 738 737 736 736 735 735 734 734 733 733 733 733 732 732 732 732 732 732 732 732 731 731 730 730 730 729 730 734 737 738 738 737 736 737 738 739 739 739 739 739 739 740 742 743 743 743 743 743 744 744 744 745 745 746 746 746 747 747 748 748 749 749 749 749 750 750 751 752 752 753 754 755 756 756 757 757 757 757
742 742 742 742 741 740 740 739 739 738 737 737 737 736 736 735 735 735 734 734 734 734 734 734 734 734 734 734 734 733 733 732 732 732 733 736 739 740 740 739 739 740 741 742 742 742 742 742 741 742 742 743 744 745 746 746 746 746 746 747 747 747 747 748 748 749 749 750 750 751 751 751 751 752 752 753 754 754 755 756 756 756 757 757 757 757
743 743 743 742 742 741 740 740 739 739 738 738 737 737 737 737 737 736 736 736 736 735 735 735 735 736 737 736 737 737 736 735 735 735 736 737 740 742 742 742 742 742 743 743 744 744 744 744 744 744 744 744 745 746 747 747 747 748 748 748 748 749 749 749 750 750 751 751 752 752 752 752 752 753 753 754 755 755 756 756 756 756 757 757 757 757
744 743 743 742 742 741 741 740 740 739 739 738 738 738 738 738 738 737 737 737 737 737 736 736 737 738 738 738 739 740 739 739 738 738 738 739 741 743 744 744 743 744 744 745 745 745 745 746 746 746 746 746 747 747 747 748 748 749 749 750 750 750 751 751 752 752 752 753 753 753 753 753 753 754 754 755 755 755 756 756 756 756 757 757 757 757
745 744 744 743 743 742 742 741 741 740 740 739 739 738 738 738 738 738 739 739 738 738 738 738 738 739 740 741 742 742 742 741 741 741 741 741 742 745 746 745 745 745 745 746 746 747 747 747 747 748 748 748 749 749 749 749 749 749 750 750 751 752 752 753 753 754 754 754 754 754 754 754 754 755 755 755 755 755 756 756 756 756 756 757 757 757
746 745 745 744 744 743 743 742 742 742 741 740 740 739 739 739 739 740 741 741 740 740 740 740 740 741 742 742 743 743 743 743 743 743 743 743 745 746 747 747 747 746 747 747 747 748 748 748 749 749 750 750 750 750 750 750 750 750 751 751 752 752 753 753 754 754 755 755 755 755 755 755 755 755 755 755 755 755 756 756 756 756 756 757 757 757
747 746 746 745 745 744 744 744 743 743 742 742 741 740 740 740 740 741 742 742 741 741 741 741 742 742 742 742 743 743 744 745 745 745 745 745 747 748 748 748 748 747 747 748 748 749 750 751 751 751 751 751 752 752 752 752 752 752 752 752 753 753 754 754 755 755 755 755 755 755 755 755 755 755 755 755 755 756 756 756 756 756 757 757 757 757
748 747 747 747 746 746 745 745 745 744 744 743 742 742 742 742 742 742 742 742 743 743 743 743 743 743 743 742 742 744 746 747 747 746 746 747 748 749 749 749 749 749 748 748 749 750 752 752 752 752 752 752 752 752 753 753 753 753 753 753 754 754 755 755 755 756 756 756 756 756 756 756 756 756 756 756 756 756 756 756 756 756 757 757 757 758
749 749 748 748 747 747 746 746 746 745 745 744 744 744 743 743 743 743 743 744 744 744 744 744 744 744 744 743 744 745 747 748 748 747 747 748 748 749 749 750 750 750 749 749 750 751 752 753 754 753 753 753 753 753 754 754 754 754 754 754 754 755 755 756 756 756 756 756 756 756 756 756 756 756 756 756 756 756 756 756 757 757 757 757 758 758
751 750 750 749 749 748 748 747 747 747 747 746 746 746 745 745 745 745 745 745 745 745 745 745 745 745 745 745 746 747 748 748 749 748 748 749 749 750 750 750 750 750 750 750 750 751 752 753 754 754 754 754 754 754 755 755 755 755 755 755 755 756 756 756 757 757 757 757 757 757 757 757 757 757 757 757 757 757 757 757 757 757 757 758 758 758
752 752 751 751 750 750 749 749 749 748 748 748 747 747 747 747 747 747 746 746 746 746 746 746 746 747 747 747 748 748 749 749 750 750 750 750 750 750 751 751 751 751 751 751 751 752 753 754 754 754 755 755 755 755 755 756 756 756 756 756 756 757 757 757 757 757 757 757 757 757 757 757 757 757 757 757 757 757 757 757 757 758 758 758 759 759
753 753 752 752 752 752 751 751 750 750 750 749 749 749 749 748 748 748 748 748 748 747 747 747 747 747 748 748 749 750 750 751 751 751 751 751 751 751 751 752 752 752 752 752 752 753 754 754 755 755 755 756 756 756 756 756 757 757 757 757 757 757 757 757 757 758 758 758 758 758 758 758 758 757 758 758 758 758 758 758 758 759 759 759 759 759
754 754 754 753 753 753 752 752 752 752 751 751 751 751 750 750 750 750 749 749 749 749 749 749 749 748 749 749 750 751 751 752 752 752 752 752 752 752 752 752 753 753 753 753 753 754 755 755 755 756 756 756 757 757 757 757 757 757 757 757 758 758 758 758 758 758 758 758 758 758 758 758 758 758 758 758 758 758 759 759 759 759 759 759 759 759
756 756 755 755 755 754 754 754 753 753 753 752 752 752 752 752 751 751 751 751 751 751 751 750 750 750 750 750 751 751 752 752 752 752 752 752 752 753 753 753 753 754 754 754 755 755 755 756 756 756 757 757 757 757 757 757 758 758 758 758 758 758 759 759 759 759 759 759 759 759 759 758 759 759 759 759 759 759 759 760 760 760 760 760 760 760
757 757 757 756 756 756 755 755 755 754 754 754 753 753 753 753 752 752 752 752 752 752 752 752 752 752 752 752 752 752 752 752 753 753 753 753 753 754 754 754 754 754 755 755 756 756 756 756 757 757 757 757 758 758 758 758 758 759 759 759 759 759 759 759 759 759 759 759 759 759 759 759 759 759 759 759 759 760 760 760 760 760 760 760 760 760
758 757 757 757 757 757 757 756 756 756 755 755 754 754 754 753 753 753 753 753 753 753 753 753 753 753 753 753 753 753 753 753 753 754 754 754 754 754 755 755 755 755 755 756 756 757 757 757 757 757 758 758 758 758 758 759 759 759 759 759 760 760 760 760 760 760 760 760 760 760 760 760 760 760 760 760 760 760 761 761 761 761 761 761 760 760
759 758 758 758 758 757 757 757 757 757 756 756 755 755 755 754 754 754 754 754 754 754 754 754 754 754 754 754 754 754 754 754 754 754 754 755 755 755 755 755 756 756 756 757 757 757 757 758 758 758 758 758 759 759 759 759 760 760 760 760 760 760 760 760 760 760 760 760 760 760 760 760 760 760 760 760 761 761 761 761 761 761 761 761 761 761
759 759 759 759 758 758 758 758 757 757 757 756 756 756 756 755 755 755 755 755 755 755 755 755 755 755 755 755 755 755 755 755 755 755 755 755 756 756 756 756 756 757 757 757 757 757 758 758 759 759 759 759 759 759 759 760 760 760 761 761 761 761 761 761 761 761 761 761 761 761 761 761 761 761 761 761 761 762 762 762 762 762 762 762 762 762
760 760 759 759 759 759 758 758 758 758 757 757 757 756 756 756 756 756 756 756 756 756 756 756 756 756 756 756 756 756 756 757 757 757 756 756 757 757 757 757 757 757 757 758 758 758 759 759 759 759 759 759 760 760 760 760 760 761 761 761 761 761 761 761 761 761 761 761 761 761 761 761 761 762 762 762 762 762 762 762 762 762 762 762 762 762
760 760 760 760 759 759 759 759 758 758 758 758 757 757 757 757 757 757 757 757 757 756 756 756 756 756 757 757 757 757 757 757 757 757 757 757 757 757 757 757 758 758 758 758 759 759 759 759 760 760 760 760 760 760 760 760 761 761 761 761 762 762 762 762 762 762 762 762 762 762 762 762 762 762 762 762 763 763 763 763 762 762 762 762 762 762
760 760 760 760 760 759 759 759 759 759 758 758 758 758 758 758 758 758 758 757 757 757 757 757 757 757 757 757 757 757 757 758 758 758 758 758 758 758 758 758 758 758 759 759 759 760 760 760 760 760 760 761 761 761 761 761 761 761 762 762 762 762 762 762 762 762 762 762 762 762 762 762 762 762 763 763 763 763 763 763 763 763 763 763 763 763
760 760 760 760 760 760 760 759 759 759 759 759 759 759 758 758 758 758 758 758 758 758 758 757 757 757 758 758 758 758 758 758 758 758 758 758 758 758 758 758 758 759 759 759 759 760 760 761 761 761 761 761 761 762 761 762 762 762 762 762 762 762 762 762 762 762 762 762 763 763 763 763 763 763 763 764 764 764 764 764 764 764 764 764 764 764
761 760 760 760 760 760 760 760 760 760 759 759 759 759 759 759 759 759 759 759 759 758 758 758 758 758 758 759 759 759 759 759 759 759 759 759 759 759 759 759 759 759 759 759 759 760 760 761 761 761 761 762 762 762 762 762 762 762 762 762 762 762 762 763 763 763 763 763 763 763 763 763 764 764 764 764 765 765 765 765 765 764 764 764 764 764
761 761 761 760 760 760 760 760 760 760 760 760 760 760 760 760 760 759 759 759 759 759 759 759 759 759 759 759 759 759 759 759 759 759 759 759 759 759 759 759 759 759 759 759 760 760 760 761 761 762 762 762 762 762 762 762 762 762 762 762 762 763 763 763 763 763 763 764 764 764 764 764 764 764 765 765 765 765 765 765 765 765 765 765 765 765
761 761 761 761 761 761 761 760 760 760 761 761 761 760 760 760 760 760 760 760 760 760 760 760 760 760 760 760 760 760 760 760 760 760 760 759 759 760 759 759 759 759 760 760 760 760 761 761 761 761 762 762 762 762 762 762 762 762 762 762 763 763 763 763 763 764 764 764 764 765 765 765 765 765 765 765 766 766 766 766 766 766 766 766 766 766
761 761 761 761 761 761 761 761 761 761 761 761 761 761 761 760 760 760 760 760 760 760 760 760 760 760 760 760 760 760 760 760 760 760 760 760 760 760 760 760 760 760 760 760 760 760 761 761 761 762 762 762 762 763 763 762 762 762 762 763 763 763 763 763 764 764 764 765 765 765 765 765 765 766 766 766 766 766 767 767 767 766 766 766 767 767
761 761 761 761 761 761 761 761 761 761 761 761 761 761 761 761 761 760 760 760 760 760 760 761 761 761 761 761 761 761 760 761 761 761 761 760 760 760 760 761 761 761 761 761 761 761 761 762 762 762 762 762 762 762 763 763 762 762 763 763 763 763 763 764 764 764 765 765 765 766 766 766 766 766 766 766 767 767 767 767 767 767 767 767 767 767
761 761 761 761 762 762 762 762 761 761 761 761 761 761 761 761 761 761 761 761 761 761 761 761 761 761 761 761 761 761 761 761 761 761 761 761 761 761 761 761 761 761 761 761 761 762 762 762 762 762 762 762 762 762 762 763 763 763 763 763 763 763 764 764 764 764 765 765 766 766 766 767 767 767 767 767 767 767 767 767 767 767 768 768 768 767
Wind_Speed
18 20 23 24 23 23 25 28 28 27 27 29 31 32 32 31 31 32 34 36 36 37 36 36 37 37 35 31 26 22 20 18 16 14 13 13 13 13 12 13 15 17 20 25 30 34 36 36 36 38 40 44 46 47 47 46 45 44 43 42 40 39 37 37 37 37 37 36 35 34 33 32 31 29 28 26 25 23 21 20 18 15 12 9 7 6
18 20 22 23 23 22 24 27 28 26 26 27 29 30 31 31 31 32 34 35 36 36 37 37 38 38 38 35 30 25 21 19 18 17 16 17 18 17 14 11 10 13 16 20 25 28 31 33 35 38 41 44 46 47 46 45 45 45 44 42 39 37 37 37 37 37 37 36 35 34 33 31 30 28 26 25 23 21 20 18 16 13 10 8 6 6
18 19 21 22 22 22 23 26 27 25 24 25 27 29 30 31 31 32 32 33 34 36 37 38 38 39 39 38 34 29 22 19 17 16 15 16 17 17 16 12 10 12 16 19 23 26 29 31 33 36 40 44 47 47 47 46 46 45 43 41 38 37 37 38 38 37 37 36 35 33 32 30 29 27 25 23 21 20 18 16 13 11 8 7 6 5
17 17 19 20 21 22 22 25 25 24 23 23 25 27 30 31 31 31 31 31 32 35 37 39 39 40 39 39 37 33 27 21 18 15 13 13 14 14 14 13 11 13 15 17 20 23 27 29 31 34 38 43 47 48 48 47 46 44 42 39 38 38 38 39 39 38 37 36 34 33 31 29 26 25 23 22 20 18 16 14 12 9 7 6 4 4
16 17 18 18 19 20 22 24 25 23 22 21 22 24 27 29 30 30 31 32 32 33 35 38 40 40 39 39 38 36 31 26 21 17 14 12 11 11 11 12 13 13 13 14 16 20 25 28 30 33 38 43 46 48 48 47 45 42 40 39 39 39 40 40 39 38 37 36 33 31 28 26 24 23 22 21 19 17 15 13 10 8 6 5 4 4
14 16 17 17 17 18 21 23 25 24 22 21 20 21 23 26 29 30 31 32 32 32 33 36 38 39 39 39 39 37 35 31 27 23 18 14 12 10 11 12 14 14 14 13 15 19 24 28 31 34 38 41 44 46 47 45 43 40 39 39 40 41 41 41 40 38 37 34 31 28 25 24 23 23 22 21 19 17 15 12 9 7 6 6 6 6
13 15 16 17 17 17 19 22 25 25 22 21 20 19 20 22 25 28 30 30 31 31 31 33 36 39 39 39 39 39 38 36 33 30 26 21 16 12 11 13 15 16 16 16 18 21 25 29 31 33 34 36 39 42 44 43 41 39 39 40 42 42 42 41 39 37 35 31 28 26 25 24 24 24 23 22 19 16 13 11 9 8 8 8 8 8
12 14 16 17 17 17 18 21 24 25 23 21 20 19 19 19 21 24 27 30 31 31 31 32 34 37 38 39 39 40 40 39 38 37 34 31 27 22 17 14 14 17 19 21 23 25 27 30 31 30 30 31 34 37 40 40 40 40 41 42 43 43 42 41 39 36 33 29 27 27 26 26 26 26 24 22 19 16 13 12 10 9 9 9 8 8
12 13 14 16 17 17 17 20 23 24 22 20 19 19 18 18 18 19 22 26 29 30 31 31 32 33 35 37 38 39 40 40 40 40 40 38 37 34 30 26 22 21 22 25 28 29 29 30 30 30 29 29 31 35 38 40 41 43 44 45 45 44 43 41 38 35 32 29 28 28 28 28 27 26 24 21 19 17 15 13 12 11 10 9 8 7
12 12 13 14 15 16 16 17 20 22 21 19 18 18 18 18 18 18 19 22 25 27 29 30 30 30 32 34 35 36 37 38 40 40 40 40 40 39 38 36 34 31 29 27 27 27 28 29 30 31 32 33 35 38 41 43 45 46 46 46 45 44 42 40 37 34 32 31 30 30 30 29 27 25 23 21 20 19 17 15 13 11 9 8 7 6
11 12 12 13 14 15 15 15 17 19 20 17 17 18 20 20 18 17 17 18 21 23 26 28 29 29 29 30 32 34 35 36 38 39 39 39 39 40 40 40 39 37 36 33 31 29 28 29 30 32 34 37 40 43 45 47 48 48 48 47 45 42 39 37 36 34 33 32 32 31 30 28 26 24 22 21 21 20 18 15 12 9 7 6 6 6
11 11 12 12 13 14 15 15 16 18 19 17 16 17 19 20 19 17 16 16 18 20 22 25 29 31 30 29 30 31 32 33 35 36 38 38 39 39 39 40 39 39 39 38 37 36 34 32 32 33 34 37 41 43 45 47 48 49 49 47 44 40 38 36 35 35 34 33 32 31 29 27 25 23 21 21 20 18 16 14 11 8 5 5 4 4
11 11 11 12 13 14 15 16 16 17 18 17 16 14 15 17 17 16 16 16 17 17 19 21 25 30 32 32 30 29 30 31 33 35 37 38 37 37 37 38 38 38 39 40 39 38 36 35 35 34 34 35 37 39 40 41 43 45 46 45 42 39 37 36 36 35 34 34 32 31 29 27 25 23 21 20 18 16 14 13 11 8 6 4 4 4
11 11 11 12 13 14 15 15 16 16 17 16 15 14 14 15 15 14 14 15 16 16 17 19 22 26 31 33 32 30 28 29 32 36 38 38 37 36 36 37 37 38 39 39 39 38 37 37 36 35 34 35 35 37 37 37 38 39 41 41 40 39 37 36 36 35 34 33 32 30 28 26 25 23 21 19 16 14 14 13 11 8 6 5 4 3
11 11 11 11 12 13 14 15 15 15 15 16 16 15 14 15 15 14 13 12 13 14 15 17 19 23 28 31 31 30 28 28 30 33 36 37 36 36 36 36 37 38 39 39 38 37 37 37 36 35 34 34 35 36 37 37 36 36 37 38 38 37 37 36 35 34 33 31 30 28 26 25 24 22 21 19 17 16 16 15 12 9 6 4 3 2
11 11 10 10 11 13 14 14 14 14 15 16 16 15 14 14 14 13 12 12 12 12 12 12 14 16 21 27 30 30 27 26 27 29 32 34 35 35 35 35 36 37 38 38 37 36 36 36 35 34 33 33 34 35 37 36 35 34 34 35 35 35 35 34 33 32 30 28 27 25 24 22 21 20 19 17 17 17 17 17 14 10 6 4 2 1
11 11 10 10 11 12 13 13 13 13 14 15 15 15 14 13 13 13 13 12 12 11 11 11 8 6 9 18 26 29 27 23 23 25 28 30 32 34 35 34 34 35 37 37 36 35 34 34 34 33 31 31 31 33 33 33 33 33 32 32 32 32 31 31 30 29 27 26 25 24 23 21 20 19 17 16 15 15 15 15 12 10 6 4 2 1
11 11 11 11 11 11 13 13 13 14 14 14 14 14 13 13 13 13 13 12 12 12 12 12 9 5 4 7 16 25 26 22 21 23 25 27 29 31 33 33 34 35 36 36 35 34 33 33 32 31 29 29 29 29 30 30 30 29 29 29 29 29 28 28 27 27 25 24 24 23 22 21 20 19 18 16 15 15 14 12 11 8 6 3 2 2
11 12 12 11 11 11 12 13 14 14 14 13 12 12 12 13 13 13 13 13 12 12 11 10 10 9 8 7 12 19 23 22 21 22 23 24 26 28 30 31 32 33 34 34 33 33 32 31 30 28 28 27 28 28 27 27 26 26 26 26 25 26 26 26 25 25 24 23 23 22 22 21 20 19 18 17 16 15 13 11 10 7 5 3 2 2
12 12 12 11 11 11 12 13 14 14 13 12 11 10 10 11 12 13 12 12 12 12 12 12 11 10 10 11 14 17 20 21 21 21 21 22 24 26 28 28 29 31 32 32 31 31 30 29 27 26 26 26 26 26 26 26 25 25 24 24 23 23 23 23 23 23 23 22 22 22 21 21 20 19 18 17 16 14 13 11 8 6 4 2 2 3
12 12 12 12 11 11 11 13 14 14 13 12 11 10 10 10 11 11 12 12 12 12 12 12 11 11 12 13 14 15 18 19 18 17 18 20 22 24 25 26 27 28 29 29 29 29 28 27 26 24 24 24 24 24 24 24 24 24 24 24 23 23 23 23 22 22 21 20 20 20 20 20 19 19 18 16 15 14 12 10 7 5 2 1 2 2
12 12 12 13 13 12 11 12 14 14 14 13 12 11 10 10 10 10 10 11 11 11 12 11 11 13 15 15 14 14 16 17 16 14 15 15 18 21 23 24 26 27 27 27 27 27 27 27 25 23 22 22 22 23 23 23 23 22 22 22 22 22 22 21 21 20 19 18 17 18 18 18 18 17 17 16 14 13 11 8 6 3 1 1 1 2
13 12 12 13 13 13 12 12 13 14 15 15 14 13 12 11 11 10 10 11 11 12 12 12 13 15 16 16 15 14 14 15 16 15 13 10 12 16 20 22 24 26 26 25 25 25 26 26 25 24 22 20 20 21 21 21 20 20 20 20 20 20 20 19 19 18 17 16 16 16 17 17 17 16 15 14 13 12 9 6 4 2 1 0 1 1
13 13 13 13 13 13 12 11 12 13 14 15 15 15 15 15 13 12 11 12 12 11 11 11 12 13 14 16 16 15 14 13 14 14 12 9 10 14 17 20 22 22 23 23 23 23 24 25 25 25 23 21 19 19 19 19 19 19 19 19 18 18 18 17 17 16 15 15 15 15 16 16 15 15 14 13 11 9 6 4 2 2 1 1 1 1
14 13 13 13 13 13 12 12 12 12 12 12 12 12 13 13 13 12 11 10 9 8 8 9 9 10 10 13 15 16 14 14 14 15 13 9 9 12 15 18 19 18 19 20 21 21 22 23 23 23 23 21 20 19 18 17 17 18 18 18 18 18 17 17 16 16 15 15 14 14 14 14 14 13 12 10 8 5 4 3 2 2 2 2 2 3
14 14 13 13 13 13 13 13 13 13 13 12 10 9 8 8 9 9 9 9 8 6 6 8 8 8 9 10 12 13 14 14 16 16 14 10 9 10 13 16 17 17 17 18 18 19 19 20 20 20 20 20 19 18 17 17 17 17 17 18 18 18 17 16 16 15 14 13 13 12 12 12 11 10 8 6 4 3 3 3 3 3 4 4 4 5
15 14 14 14 14 14 15 15 15 15 15 14 13 10 8 7 7 9 10 9 8 7 7 7 7 7 8 9 10 11 13 15 16 16 16 14 10 8 10 13 15 16 16 17 17 17 17 17 17 17 17 17 17 17 17 17 16 16 16 16 16 16 15 14 13 12 11 11 10 10 9 9 8 6 5 4 3 3 3 3 4 4 5 6 7 7
15 15 15 15 15 15 16 17 17 17 17 17 16 15 12 10 10 10 9 9 9 8 8 8 6 6 6 7 8 9 12 14 14 14 14 13 9 7 9 11 13 14 14 14 15 15 15 15 15 14 14 13 13 13 14 15 16 17 17 16 15 14 13 12 11 10 9 8 8 8 7 6 6 4 4 3 3 3 3 4 4 5 6 8 9 9
14 15 15 15 15 16 16 17 17 18 18 19 19 19 17 15 13 11 9 9 9 9 9 8 7 6 6 6 7 8 11 11 11 11 12 11 9 8 10 10 10 10 9 8 9 12 12 13 12 11 11 10 10 10 11 12 14 16 16 16 14 13 11 10 9 9 8 8 7 7 6 6 5 4 4 3 3 3 3 4 5 6 8 9 9 9
14 14 14 14 14 15 15 16 17 17 18 19 20 21 20 19 16 13 11 10 10 10 9 8 7 5 4 4 5 5 7 9 9 9 11 9 7 7 8 7 7 7 6 4 3 4 7 8 9 9 9 9 9 9 10 11 13 14 14 14 12 11 9 9 8 7 7 7 7 6 6 5 5 5 4 4 4 4 4 4 6 7 9 9 8 7
14 15 15 14 14 14 15 16 16 17 18 19 20 21 21 20 19 16 13 11 10 10 9 8 7 5 4 3 2 2 3 5 7 8 8 6 5 6 6 5 6 6 6 4 1 0 2 3 5 6 7 7 8 8 9 10 11 12 13 12 11 9 8 7 7 7 7 6 6 6 5 5 5 5 5 4 4 4 4 5 6 7 8 8 7 6
15 15 15 15 14 14 15 15 16 16 17 18 19 20 20 20 19 18 16 14 12 10 9 9 8 7 7 6 4 3 2 3 5 7 7 5 5 6 6 5 6 7 7 7 4 2 1 1 3 4 6 6 7 8 8 9 10 11 11 11 10 9 8 8 7 7 7 6 6 5 5 5 5 5 5 5 5 5 5 5 6 7 7 6 4 4
15 15 15 15 15 15 15 15 16 16 17 18 18 19 19 19 19 19 18 17 15 13 11 9 9 8 8 8 7 6 5 5 6 8 8 6 5 5 5 5 6 7 8 9 7 5 3 2 3 4 5 5 6 7 8 8 9 10 10 10 10 9 8 8 7 7 7 6 6 5 4 4 4 5 5 5 5 5 5 5 5 5 5 4 3 3
15 15 15 16 16 16 16 15 15 16 16 16 17 17 17 17 18 18 18 17 17 16 15 12 10 9 8 7 7 7 7 6 7 8 8 7 4 4 4 4 5 7 7 8 8 7 5 4 4 4 4 4 5 6 7 7 8 9 9 9 9 8 7 7 7 7 6 6 5 5 4 4 4 5 5 5 5 5 5 5 5 4 3 3 2 2
13 14 15 15 16 16 16 16 16 16 15 15 15 15 15 15 16 16 16 16 16 16 16 16 14 12 9 7 6 6 6 6 7 7 9 8 6 4 4 3 4 5 6 6 6 5 4 4 4 4 3 3 4 4 5 6 7 7 8 8 7 7 6 6 6 6 6 5 5 5 4 4 4 5 5 5 6 6 5 5 4 3 2 2 2 2
11 12 13 14 14 15 15 16 16 16 15 15 14 14 14 14 14 14 14 14 14 14 14 15 15 14 13 11 9 7 6 6 6 7 8 9 8 6 4 2 3 4 5 6 6 5 3 3 4 4 3 3 2 3 4 5 6 6 6 6 6 6 5 5 6 6 6 6 5 5 5 4 4 5 5 5 5 6 6 5 4 3 3 3 2 2
10 11 12 13 13 13 14 14 15 15 15 14 14 13 13 13 13 13 13 13 12 12 13 13 13 13 13 13 11 10 8 7 7 7 7 8 9 8 6 4 4 4 4 6 6 6 5 3 3 3 3 2 2 1 3 5 5 5 5 5 5 5 5 5 5 5 5 6 6 5 5 5 5 5 5 5 5 5 5 4 4 3 4 4 4 3
9 10 11 12 13 13 13 13 13 13 13 13 13 13 12 12 12 12 12 12 12 12 12 12 12 12 12 12 11 11 10 9 8 8 8 8 8 9 9 7 6 5 4 4 5 5 4 3 2 2 2 1 1 2 4 5 5 4 5 5 5 5 4 4 4 4 5 5 5 5 5 5 5 5 5 5 5 5 4 4 3 4 4 5 5 4
8 9 10 12 12 12 12 11 11 12 12 12 12 12 11 11 10 10 10 10 10 11 11 11 11 11 10 10 10 10 10 9 9 8 7 7 7 7 8 8 7 6 5 4 4 4 3 2 2 1 1 1 1 2 4 5 5 5 5 5 5 4 4 3 3 3 4 5 5 5 5 5 5 5 6 5 5 4 3 3 3 3 4 4 4 4
8 8 10 11 11 11 11 11 10 10 11 11 11 11 10 10 10 9 8 8 8 9 10 10 10 10 9 9 9 8 8 7 7 7 6 6 5 5 6 7 7 6 5 4 4 3 3 2 2 1 1 1 2 2 4 5 6 6 5 4 3 3 3 3 3 3 3 4 5 6 6 6 6 6 6 6 5 4 3 3 3 3 4 3 3 3
7 8 8 9 10 11 10 10 10 10 10 10 10 11 11 10 10 10 9 9 8 8 8 8 8 8 8 8 8 8 7 6 5 5 5 4 4 4 4 6 6 5 5 4 4 4 3 2 2 1 1 1 2 3 4 4 6 6 5 4 3 3 4 3 3 2 3 4 4 5 6 7 7 6 6 5 5 4 3 3 3 3 3 3 2 2
7 7 8 8 9 10 10 10 10 9 9 9 9 10 10 9 9 9 9 9 9 9 9 8 8 8 8 7 7 7 8 8 7 6 5 4 3 2 3 4 4 5 5 4 4 4 3 3 2 2 1 1 2 2 3 4 5 6 6 5 5 4 4 3 3 2 3 4 4 5 6 6 6 5 5 4 4 3 3 2 2 2 2 2 2 2
7 7 8 8 8 9 9 9 9 9 9 8 9 9 9 9 8 8 8 9 9 9 9 9 9 9 9 8 7 7 7 8 8 8 7 6 4 3 2 2 3 4 5 4 3 3 3 3 2 1 1 1 1 1 2 3 4 5 5 6 5 3 1 2 3 3 2 3 4 5 5 5 5 4 4 3 3 2 2 2 2 3 3 3 3 3
6 6 7 7 7 8 8 8 8 9 9 9 9 8 8 8 7 7 7 7 8 8 8 9 9 8 8 8 8 8 7 7 7 8 8 7 6 4 3 2 2 2 4 4 4 3 3 3 2 1 1 1 1 1 2 3 3 4 4 6 6 4 3 3 4 3 2 2 3 4 4 3 3 3 3 3 2 2 2 3 3 4 4 4 4 4
4 5 6 6 6 7 7 7 8 8 8 9 8 8 7 7 7 6 7 7 7 7 7 8 8 6 5 6 7 8 7 7 7 7 7 7 6 5 3 2 1 1 2 3 3 4 3 3 3 2 2 1 1 0 1 2 3 3 5 6 7 6 5 5 5 4 2 2 2 2 2 2 2 2 3 3 3 3 3 3 3 4 4 4 4 4
3 4 5 5 5 5 5 6 6 7 7 7 8 8 7 6 6 5 6 6 7 7 7 7 6 5 4 4 5 6 7 7 7 7 6 6 6 5 4 3 2 1 1 2 2 2 2 2 3 3 3 2 1 1 0 1 2 3 4 6 7 7 5 5 4 4 3 2 2 2 2 2 2 4 5 5 4 4 3 3 3 3 3 4 4 4
4 4 4 4 4 5 5 5 6 6 6 6 7 7 7 6 5 5 5 5 5 6 6 6 6 5 5 4 4 4 5 6 6 6 6 6 6 5 5 4 3 3 2 2 2 1 1 1 1 2 2 2 1 1 1 1 2 2 4 6 7 7 6 5 5 4 3 3 2 2 2 3 5 6 6 6 5 5 4 4 4 4 4 4 3 3
4 4 4 4 4 4 5 5 5 5 5 5 5 6 7 6 6 6 5 5 5 5 5 4 4 4 5 5 4 4 4 4 4 4 5 6 6 6 5 5 5 4 4 3 2 1 1 1 1 1 2 2 2 1 1 1 2 3 4 6 7 7 7 6 6 5 4 3 3 3 4 5 6 7 7 7 7 6 6 5 5 4 4 4 4 3
4 4 4 4 4 4 5 5 5 5 5 4 4 5 6 6 6 5 5 5 5 4 4 3 3 3 3 3 4 4 4 4 3 3 4 5 5 5 5 5 5 5 5 5 4 3 3 2 1 1 1 1 2 2 1 1 2 4 5 6 7 7 7 7 7 6 5 4 4 4 5 6 7 7 8 8 8 7 7 6 6 5 5 4 4 3
3 3 3 4 4 4 4 4 5 5 5 5 5 5 6 6 6 5 5 5 4 4 3 3 3 3 3 2 3 3 3 3 2 2 3 4 4 4 4 4 4 4 4 4 4 4 4 3 3 3 3 2 1 1 1 2 3 4 6 7 8 9 8 8 7 6 5 5 5 5 6 7 7 8 8 8 8 8 8 7 7 7 6 5 4 4
2 2 3 3 3 4 4 4 4 4 5 5 5 5 6 6 6 5 5 4 4 3 3 3 3 3 3 3 2 2 2 2 2 2 2 3 3 3 2 2 2 2 2 2 2 2 1 1 2 2 3 4 4 2 1 2 3 4 5 8 10 10 9 8 7 7 6 6 5 6 6 7 8 9 9 9 8 8 8 8 8 8 7 6 6 6
Wind_Direction
360 1 6 10 11 11 12 14 13 12 11 13 16 18 22 26 29 31 33 35 36 38 40 42 44 46 49 52 57 61 64 68 76 87 97 103 105 111 123 138 148 155 159 163 166 168 171 173 174 173 170 166 164 164 165 165 164 164 166 169 173 174 170 167 163 160 159 159 159 161 163 164 165 166 169 172 176 181 185 187 187 185 181 176 174 176
0 2 6 11 13 13 11 14 15 14 12 13 15 18 22 25 28 30 32 34 35 37 38 41 45 48 49 51 54 60 69 74 80 88 97 103 104 104 107 117 138 156 164 166 169 172 174 174 174 172 170 168 167 166 167 166 165 165 167 170 171 168 163 160 156 155 155 156 158 159 160 162 164 167 171 175 180 184 188 189 188 184 178 174 175 177
1 2 4 8 12 13 11 11 14 15 15 15 16 19 23 26 28 29 29 31 34 37 39 42 45 48 49 50 52 58 69 78 85 92 100 105 105 102 100 105 131 161 172 173 174 176 177 176 173 172 171 170 169 169 168 166 165 165 166 168 167 163 158 155 153 153 154 155 156 157 159 161 165 170 175 179 182 184 186 186 184 179 174 174 175 170
4 3 0 4 9 13 12 10 11 13 15 16 17 21 24 27 27 28 29 31 33 36 39 42 45 47 48 49 51 55 64 75 86 96 104 107 105 102 104 113 136 163 177 179 180 181 181 178 175 173 171 169 168 167 166 164 163 163 163 164 162 159 155 153 153 153 154 155 156 158 161 164 169 173 177 179 179 180 180 178 175 171 169 168 160 145
8 6 2 3 7 10 11 12 12 13 15 16 18 20 24 26 27 28 31 34 35 36 38 41 44 46 47 47 49 54 61 70 78 88 100 110 115 118 123 133 149 167 183 187 183 179 178 176 172 168 165 163 162 161 160 159 158 158 158 159 158 155 153 153 153 154 155 156 158 160 163 167 171 174 175 175 173 172 170 167 162 157 152 140 126 126
8 8 8 9 9 9 11 12 13 15 15 16 17 20 22 25 27 29 31 33 34 36 37 39 42 45 47 47 50 54 60 66 71 76 83 97 116 135 149 158 167 177 188 188 177 168 168 166 162 157 153 152 152 152 152 152 153 154 155 155 154 153 153 153 154 156 157 158 159 161 164 167 169 171 170 169 167 164 161 153 143 132 122 121 129 144
8 10 12 14 14 14 14 14 15 16 15 14 15 17 20 23 26 29 30 32 34 35 37 39 42 45 46 48 51 54 59 63 66 69 72 78 90 111 143 168 181 187 189 184 173 164 161 160 156 151 146 144 144 145 147 149 151 154 155 155 154 153 154 155 156 157 158 158 160 162 164 165 166 166 165 164 161 156 147 133 121 118 124 135 145 154
9 10 13 14 13 14 15 15 16 16 16 15 15 15 16 20 24 27 30 33 34 35 37 39 41 43 44 46 49 53 56 59 61 63 65 69 74 82 99 127 155 170 172 168 164 162 160 158 156 152 149 145 144 144 147 151 155 157 158 157 156 156 157 158 158 158 158 159 161 163 164 164 163 162 161 159 154 145 130 119 119 129 140 146 149 153
13 12 13 14 13 13 12 12 14 15 16 17 18 18 16 17 20 24 28 32 33 35 36 37 38 40 41 44 48 52 55 57 58 60 62 64 68 74 82 91 105 123 136 143 148 152 155 156 155 154 153 152 150 150 152 155 157 158 158 157 157 158 158 159 159 158 158 161 163 164 163 163 162 161 158 153 145 135 127 126 133 142 146 147 149 151
17 15 14 13 15 15 13 10 9 11 15 18 22 24 23 21 21 23 28 30 32 34 37 37 37 37 38 42 45 49 54 58 60 62 63 64 67 71 76 81 87 94 104 113 121 131 141 147 151 154 155 156 156 156 156 157 158 157 157 156 156 156 156 157 158 158 160 162 163 163 163 163 162 159 153 146 138 132 129 133 141 149 152 152 151 152
17 17 16 13 13 15 16 11 8 8 13 17 22 26 28 26 25 27 29 30 31 34 37 39 39 38 37 38 41 45 50 54 58 62 64 66 67 70 73 76 80 85 89 91 94 102 113 124 133 141 146 149 152 153 155 156 157 157 156 155 154 154 155 156 157 159 161 163 163 162 162 162 160 156 147 138 131 127 125 125 130 141 154 156 156 157
18 18 18 17 15 14 13 12 11 12 14 16 19 20 20 21 25 32 36 35 34 35 37 40 42 42 40 38 38 42 46 49 53 57 60 63 65 68 70 72 74 77 80 82 84 88 93 100 108 117 126 133 138 142 144 147 150 152 152 152 152 153 155 156 157 159 160 161 161 160 160 160 157 150 140 132 126 122 119 115 116 126 144 151 154 163
22 22 23 22 20 18 15 13 13 14 16 17 17 14 9 11 19 32 41 42 40 40 42 43 44 44 45 44 42 42 44 48 52 56 57 58 59 61 65 67 68 70 73 75 76 78 82 87 93 99 107 114 121 125 128 131 135 140 144 147 149 152 153 155 156 157 158 158 158 158 158 156 152 145 136 131 127 124 120 114 115 124 140 147 154 167
24 24 26 26 24 20 17 15 16 16 15 14 12 9 6 10 18 28 38 41 40 42 47 50 48 45 44 45 45 45 46 50 54 57 57 56 56 59 62 65 66 68 70 70 70 72 76 81 84 88 94 100 106 110 113 115 119 124 131 137 143 147 149 151 152 153 153 153 154 154 153 150 146 141 136 135 135 134 128 121 120 128 141 149 154 162
25 26 28 28 25 21 17 16 16 15 13 11 9 10 14 18 23 26 30 31 31 36 46 53 53 48 44 43 44 46 48 51 55 57 57 56 56 59 63 65 67 68 70 69 69 70 74 78 80 83 87 92 98 103 106 108 110 113 119 126 133 139 143 145 146 146 147 148 149 148 147 144 141 139 139 141 145 144 137 129 126 130 135 137 139 141
28 30 31 30 27 22 18 15 14 12 10 10 12 15 19 20 22 25 27 23 23 28 37 47 51 48 42 42 44 47 48 51 56 59 58 55 56 60 64 65 66 67 68 68 68 70 73 76 79 81 84 89 95 101 105 107 108 110 113 118 125 130 135 138 140 140 141 141 142 142 141 140 139 139 142 146 149 148 141 135 130 125 118 108 97 84
32 32 33 32 29 24 18 16 15 13 11 13 16 20 24 24 25 27 28 28 30 33 35 42 45 42 37 35 39 44 48 50 56 62 61 56 55 60 65 66 66 66 67 67 67 68 71 74 77 81 84 90 97 103 106 108 109 109 109 112 116 120 125 129 132 134 134 133 133 134 134 135 135 137 140 143 144 143 138 131 122 114 103 88 63 26
36 34 33 33 31 25 20 18 16 14 13 15 17 21 25 29 32 34 35 37 40 41 42 45 47 47 41 26 29 37 49 51 57 63 63 56 55 59 66 69 69 69 68 67 67 68 70 72 75 78 84 91 98 103 106 108 109 109 109 109 110 113 116 121 125 127 129 128 128 128 129 130 131 131 132 133 133 130 124 116 108 99 90 76 41 358
39 36 34 32 30 28 25 21 17 13 12 13 16 21 26 31 36 40 41 43 45 47 50 51 51 51 51 30 29 40 52 55 60 64 63 55 51 55 63 68 71 71 71 69 69 69 70 72 74 78 83 89 95 100 105 109 111 112 112 112 112 113 115 117 120 123 125 125 125 126 126 126 127 128 127 126 122 118 111 105 99 93 83 60 14 344
44 39 35 31 30 30 28 24 20 17 15 14 19 27 31 35 40 42 44 46 48 51 56 58 55 50 47 37 38 48 59 62 62 63 63 55 49 50 58 64 69 70 71 71 72 73 73 73 75 77 81 85 90 96 102 106 109 111 112 113 114 114 115 117 118 119 120 121 121 122 122 123 124 123 122 118 114 109 103 99 95 89 77 41 348 330
48 42 36 34 34 34 30 26 25 26 25 25 30 36 39 42 44 46 48 51 52 54 58 59 55 49 48 42 41 50 64 66 64 63 63 57 50 49 54 61 67 69 69 71 74 77 77 76 75 75 78 82 86 91 96 100 103 106 107 109 110 111 113 114 115 115 115 115 116 117 118 119 120 119 116 113 109 104 99 95 90 84 70 11 318 314
51 44 38 38 39 39 35 32 32 35 38 40 41 42 44 47 49 51 53 57 59 61 64 65 63 59 56 51 50 57 70 72 71 70 69 59 48 46 53 60 66 68 67 69 74 79 81 80 77 75 75 79 83 87 91 95 99 103 106 108 108 108 108 108 109 110 110 110 111 112 115 116 117 116 114 111 106 101 95 89 85 81 72 302 295 303
51 46 40 38 38 38 37 36 37 42 48 52 53 54 56 60 62 63 65 68 71 74 76 76 71 64 59 56 56 61 70 75 78 79 76 67 50 46 55 63 67 67 66 68 72 77 81 82 81 79 76 76 80 85 87 91 95 99 103 106 107 107 106 106 106 107 108 109 109 111 113 114 114 113 111 107 100 94 88 85 85 92 122 256 298 319
48 45 41 38 36 36 36 36 38 43 49 54 58 61 64 66 68 72 75 76 78 79 80 76 68 59 54 52 51 54 61 69 75 79 81 76 62 56 59 66 68 68 69 72 75 77 79 80 82 83 81 77 77 80 84 88 92 95 98 101 102 103 103 104 104 104 104 104 104 104 105 105 105 104 101 96 92 87 85 85 92 100 89 60 32 30
50 47 45 43 43 42 42 41 42 44 47 48 50 53 56 58 59 63 66 69 70 71 72 68 61 53 45 43 43 45 53 67 76 80 85 85 73 65 65 71 73 72 74 78 81 82 81 81 83 85 85 82 79 78 79 82 85 88 90 91 91 92 92 92 93 92 92 91 91 91 91 91 91 90 88 86 85 85 89 93 89 82 69 63 62 64
59 58 57 56 56 56 56 55 54 53 52 49 45 41 40 42 46 50 52 51 52 55 60 61 58 53 48 47 43 43 52 68 79 85 89 92 84 72 69 76 79 79 79 82 85 86 84 82 83 84 86 86 86 84 83 84 83 82 83 82 81 81 80 80 80 80 80 79 79 79 80 81 81 82 82 83 88 93 96 92 83 74 69 69 71 73
62 62 62 61 61 62 63 63 63 62 60 59 57 53 46 44 49 51 47 43 42 48 55 61 60 57 53 52 49 50 57 70 80 87 92 93 88 76 74 79 83 83 81 82 83 84 84 82 83 84 86 89 93 95 96 97 94 91 87 84 81 79 77 76 76 77 78 76 76 77 77 77 78 79 82 87 92 94 91 84 76 70 70 71 73 73
60 59 58 58 59 60 62 64 65 65 64 64 64 63 60 57 55 53 47 45 46 51 57 61 63 62 60 61 60 60 63 70 77 86 91 91 87 81 87 87 86 84 81 79 80 82 82 83 84 86 88 91 96 101 104 106 107 105 100 96 92 89 88 87 88 90 92 92 90 87 84 83 81 81 82 84 85 83 77 71 67 66 67 70 71 69
60 60 59 58 57 58 60 63 64 65 65 65 66 66 66 65 61 55 50 50 53 57 60 61 64 70 76 81 79 69 61 62 69 78 86 89 91 96 101 94 88 85 82 79 77 75 72 77 83 88 92 94 97 101 106 108 109 108 105 101 99 100 101 102 103 104 104 101 96 91 85 80 76 73 71 70 71 68 62 59 59 62 64 66 66 64
58 59 58 57 56 56 58 60 61 63 64 65 65 66 67 68 66 61 56 51 54 59 60 60 61 67 80 92 90 72 54 49 57 71 82 86 94 105 108 93 79 75 75 77 72 62 58 67 79 90 98 101 102 105 108 110 110 108 104 101 99 99 100 102 102 101 98 92 87 81 76 71 67 62 60 59 58 56 52 52 54 59 61 62 60 58
55 55 55 54 54 54 55 56 57 59 60 62 63 64 65 67 68 66 61 53 51 54 55 54 51 47 46 58 74 71 57 35 44 61 70 83 104 115 111 82 61 58 60 68 75 63 55 58 72 89 106 109 110 112 114 116 115 112 108 103 98 93 90 90 90 89 85 80 76 71 68 65 62 58 55 53 52 50 48 48 52 55 56 56 54 49
58 57 56 55 54 53 53 53 53 53 54 56 58 60 62 64 65 66 64 60 54 50 47 46 44 42 42 48 57 68 75 43 44 53 62 84 116 122 110 83 63 58 58 66 69 73 93 70 72 88 106 108 112 117 119 122 121 118 112 105 98 92 86 85 85 84 81 77 73 69 65 62 60 57 53 51 51 51 51 51 52 53 52 52 48 41
62 60 59 58 56 55 53 52 50 49 49 50 52 55 58 60 61 63 63 62 60 55 46 40 37 41 48 56 63 71 78 71 60 57 62 81 111 126 113 89 71 61 58 60 65 73 85 83 82 88 98 105 112 118 122 126 125 120 113 105 97 92 89 86 85 85 82 78 74 70 65 61 57 55 52 51 51 53 55 57 58 58 54 52 48 41
62 60 58 56 56 56 55 54 52 50 48 47 48 50 52 54 56 58 59 59 60 59 56 52 45 40 41 54 65 72 75 74 66 60 59 64 92 128 125 97 75 62 54 53 57 67 75 75 74 76 81 97 113 123 126 126 125 121 114 105 96 91 90 87 86 84 80 76 73 70 65 61 57 55 54 54 54 57 59 62 65 66 65 57 53 58
59 57 54 53 52 53 54 54 54 52 50 48 47 46 48 49 51 52 53 54 55 57 58 59 60 58 52 52 60 69 70 72 70 64 60 57 66 96 120 112 85 64 53 51 55 62 68 66 67 70 73 80 100 122 132 132 128 122 116 108 100 94 92 89 85 81 78 74 70 68 65 62 61 60 60 59 59 60 62 64 64 63 59 53 58 71
57 54 52 50 49 48 50 52 53 53 52 51 49 47 46 46 47 49 50 51 51 53 54 57 61 66 70 73 75 76 77 77 74 69 63 59 59 64 81 92 74 60 59 60 64 72 76 70 70 75 77 68 76 113 140 146 141 131 121 114 108 103 99 95 87 80 75 70 67 65 63 63 63 64 65 64 64 63 63 61 57 47 35 36 42 53
58 54 50 47 46 46 46 49 52 52 52 52 52 51 49 47 46 46 47 48 49 50 52 54 58 63 70 76 82 87 87 83 76 70 64 60 58 57 59 56 51 52 60 67 73 79 83 82 78 72 69 64 61 98 156 158 152 141 131 124 118 111 107 103 93 82 72 66 62 60 59 61 63 66 69 69 68 66 63 58 50 38 31 32 35 39
58 52 45 44 44 45 46 47 49 51 51 52 53 54 54 52 48 45 44 45 46 48 49 51 54 58 65 72 78 83 84 81 75 68 62 58 54 54 57 55 52 53 58 68 70 72 79 84 85 77 68 68 103 168 175 168 160 152 145 141 135 125 115 108 98 83 72 66 61 57 57 61 64 67 68 70 70 67 61 53 44 36 31 31 34 37
52 44 40 40 42 45 46 47 49 51 52 53 54 57 60 61 59 54 48 45 44 45 47 48 50 53 56 63 70 77 82 83 81 76 69 62 53 49 53 56 58 60 67 76 75 68 60 60 72 87 97 97 143 184 187 180 175 169 162 155 148 141 133 125 105 84 73 67 63 59 56 59 62 62 59 61 60 58 52 44 39 35 31 29 28 31
48 43 40 40 44 47 49 49 51 53 55 55 56 59 62 64 66 67 66 60 52 48 45 45 45 46 47 49 52 59 68 78 85 89 88 79 65 53 51 56 62 67 70 77 81 72 48 43 53 76 95 118 142 169 183 185 186 182 171 160 148 141 140 138 120 92 75 67 62 58 55 54 53 51 48 46 45 42 40 36 32 34 32 33 34 37
53 49 44 44 46 47 49 51 54 56 56 57 58 59 60 60 59 59 64 68 69 65 56 51 48 47 44 41 38 35 35 41 54 71 85 88 81 66 52 55 60 64 68 71 75 71 54 42 43 63 88 130 147 159 173 186 191 189 181 174 166 160 155 150 134 104 80 68 61 57 52 49 46 43 40 38 37 37 36 39 38 36 35 34 43 61
61 59 55 53 50 48 47 49 50 52 57 62 62 60 60 58 55 53 54 57 61 63 64 60 54 51 49 44 38 30 23 19 19 23 32 39 44 43 44 52 58 62 63 61 61 59 56 48 43 44 68 113 131 143 161 185 194 196 193 189 181 174 170 168 159 130 87 68 60 53 48 45 43 40 37 36 34 33 32 44 51 52 52 56 63 75
63 61 58 56 52 48 47 47 45 46 50 55 58 59 59 58 55 53 55 54 54 54 55 53 51 48 46 44 40 32 24 19 15 14 14 13 10 7 12 31 53 63 63 55 49 48 46 45 44 45 63 85 114 142 150 174 188 197 200 196 186 175 158 174 171 152 107 75 58 49 44 42 40 40 40 41 38 37 45 60 67 69 70 74 79 84
61 55 52 47 43 41 41 41 41 43 44 47 49 49 50 53 54 54 56 59 58 56 53 51 50 48 43 41 40 36 28 22 17 14 11 11 13 16 13 15 34 64 72 60 51 44 33 34 18 353 18 46 55 130 156 171 179 187 197 197 193 188 188 176 164 150 121 87 62 52 50 46 45 49 57 61 61 62 67 73 76 78 79 81 83 83
58 53 51 42 35 30 28 30 33 35 37 39 41 42 42 47 49 50 54 59 61 60 58 55 50 43 40 36 35 36 34 27 22 16 11 9 11 18 28 33 35 66 89 86 77 62 45 36 16 354 351 13 24 23 162 177 184 193 202 201 199 196 193 178 164 151 127 107 92 78 71 66 74 94 102 100 96 87 83 83 84 85 85 83 82 79
54 50 47 39 31 25 25 23 26 29 29 29 31 33 36 41 44 44 49 54 55 55 58 59 52 41 34 32 29 26 25 25 21 15 9 6 7 13 23 34 43 52 84 107 115 104 77 55 33 11 354 356 354 329 249 205 195 198 204 203 200 197 191 179 167 160 151 141 133 125 112 121 133 131 123 117 110 102 95 93 93 95 92 88 82 77
37 37 36 31 23 16 11 16 23 27 25 23 22 23 26 31 34 36 39 44 46 46 47 52 51 46 39 34 26 18 15 17 12 4 2 1 4 9 15 25 35 45 54 79 105 131 144 124 76 43 22 1 339 311 276 237 217 206 203 200 196 191 185 181 175 168 163 163 163 161 161 158 149 138 127 122 116 109 103 100 98 96 93 89 84 77
32 29 26 23 19 15 13 15 18 22 24 21 17 15 17 23 29 33 35 38 38 37 33 34 40 44 41 34 24 13 11 15 8 358 355 358 359 2 10 18 26 34 41 45 55 73 110 159 151 124 87 23 344 314 278 249 228 215 207 199 192 188 186 184 181 176 175 180 181 180 176 164 149 137 129 122 115 110 107 104 103 100 95 92 89 87
33 25 19 16 13 11 11 11 12 15 18 18 15 11 10 13 21 28 30 33 34 33 26 24 27 33 35 27 14 6 4 6 3 356 350 353 357 3 8 14 22 27 30 32 32 31 29 17 338 212 176 55 354 327 297 256 236 223 209 197 190 188 188 187 184 183 186 189 189 185 177 167 157 146 135 122 112 107 105 105 105 105 103 101 102 100
31 21 15 10 8 5 3 1 2 4 5 7 7 4 1 3 9 16 22 26 27 27 23 17 14 16 18 15 9 4 4 9 11 2 348 345 353 6 13 19 26 36 41 41 38 34 27 20 359 325 290 263 265 305 318 266 243 227 209 198 191 188 187 187 186 187 191 194 193 187 178 168 161 152 139 126 116 110 106 103 102 104 107 110 110 108
20 12 6 2 358 355 352 351 353 354 354 354 353 351 350 352 356 2 8 13 16 15 13 9 7 6 3 360 359 360 3 6 9 1 344 335 342 357 10 19 30 40 50 52 48 50 61 44 18 353 333 303 282 251 215 247 236 216 202 198 194 190 188 187 187 190 194 197 196 190 180 168 159 149 139 128 119 112 104 97 96 100 106 110 109 105